Time,TemperatureF,DewpointF,PressureIn,WindDirection,WindDirectionDegrees,WindSpeedMPH,WindSpeedGustMPH,Humidity,HourlyPrecipIn,Conditions,Clouds,dailyrainin,SoftwareType,DateUTC
2013-03-19 00:03:00,33.0,22.0,-100.00,SSE,155,2.0,9.0,65,-99.99,,,-99.99,,2013-03-19 04:03:00,
2013-03-19 03:53:00,30.0,29.0,-100.00,East,100,7.0,15.0,98,-99.99,,,-99.99,,2013-03-19 07:53:00,
2013-03-19 04:03:00,30.0,29.0,-100.00,East,95,6.0,15.0,98,-99.99,,,-99.99,,2013-03-19 08:03:00,
2013-03-19 04:13:00,30.0,30.0,-100.00,East,95,7.0,14.0,99,-99.99,,,-99.99,,2013-03-19 08:13:00,
2013-03-19 04:22:00,30.0,29.0,-100.00,East,80,8.0,17.0,98,-99.99,,,-99.99,,2013-03-19 08:22:00,
2013-03-19 04:32:00,30.0,29.0,-100.00,ESE,105,12.0,17.0,98,-99.99,,,-99.99,,2013-03-19 08:32:00,
2013-03-19 04:42:00,30.0,29.0,-100.00,East,95,7.0,15.0,99,-99.99,,,-99.99,,2013-03-19 08:42:00,
2013-03-19 04:52:00,30.0,30.0,-100.00,ESE,115,10.0,21.0,99,-99.99,,,-99.99,,2013-03-19 08:52:00,
2013-03-19 05:03:00,30.0,30.0,-100.00,ESE,110,10.0,20.0,99,-99.99,,,-99.99,,2013-03-19 09:03:00,
2013-03-19 05:12:00,30.0,30.0,-100.00,ESE,105,8.0,15.0,99,-99.99,,,-99.99,,2013-03-19 09:12:00,
2013-03-19 05:23:00,30.0,30.0,-100.00,East,100,9.0,15.0,99,-99.99,,,-99.99,,2013-03-19 09:23:00,
2013-03-19 05:30:00,30.0,30.0,-100.00,East,90,15.0,21.0,99,-99.99,,,-99.99,,2013-03-19 09:30:00,
2013-03-19 05:33:00,30.0,30.0,-100.00,East,95,10.0,17.0,99,-99.99,,,-99.99,,2013-03-19 09:33:00,
2013-03-19 05:43:00,30.0,30.0,-100.00,East,100,12.0,21.0,99,-99.99,,,-99.99,,2013-03-19 09:43:00,
2013-03-19 05:53:00,30.0,30.0,-100.00,ESE,120,10.0,22.0,99,-99.99,,,-99.99,,2013-03-19 09:53:00,
2013-03-19 06:04:00,30.0,30.0,-100.00,ESE,120,10.0,22.0,99,-99.99,,,-99.99,,2013-03-19 10:04:00,
2013-03-19 06:13:00,30.0,30.0,-100.00,East,90,15.0,21.0,99,-99.99,,,-99.99,,2013-03-19 10:13:00,
2013-03-19 06:23:00,30.0,30.0,-100.00,East,90,15.0,21.0,99,-99.99,,,-99.99,,2013-03-19 10:23:00,
2013-03-19 07:12:00,31.0,31.0,-100.00,ESE,105,8.0,16.0,100,-99.99,,,-99.99,,2013-03-19 11:12:00,
2013-03-19 07:22:00,31.0,31.0,-100.00,ENE,75,10.0,21.0,100,-99.99,,,-99.99,,2013-03-19 11:22:00,
2013-03-19 07:33:00,31.0,31.0,-100.00,East,100,9.0,18.0,100,-99.99,,,-99.99,,2013-03-19 11:33:00,
2013-03-19 07:43:00,31.0,31.0,-100.00,East,85,12.0,20.0,100,-99.99,,,-99.99,,2013-03-19 11:43:00,
2013-03-19 07:52:00,31.0,31.0,-100.00,East,95,13.0,21.0,100,-99.99,,,-99.99,,2013-03-19 11:52:00,
2013-03-19 08:02:00,31.0,31.0,-100.00,East,80,10.0,20.0,100,-99.99,,,-99.99,,2013-03-19 12:02:00,
2013-03-19 08:12:00,31.0,31.0,-100.00,ENE,75,15.0,24.0,100,-99.99,,,-99.99,,2013-03-19 12:12:00,
2013-03-19 08:23:00,31.0,29.0,-100.00,East,100,16.0,24.0,93,-99.99,,,-99.99,,2013-03-19 12:23:00,
2013-03-19 08:33:00,31.0,29.0,-100.00,East,100,16.0,24.0,93,-99.99,,,-99.99,,2013-03-19 12:33:00,
2013-03-19 08:43:00,31.0,31.0,-100.00,East,85,14.0,21.0,100,-99.99,,,-99.99,,2013-03-19 12:43:00,
2013-03-19 08:52:00,31.0,31.0,-100.00,East,90,13.0,24.0,100,-99.99,,,-99.99,,2013-03-19 12:52:00,
2013-03-19 09:02:00,32.0,32.0,-100.00,East,85,10.0,25.0,100,-99.99,,,-99.99,,2013-03-19 13:02:00,
2013-03-19 09:12:00,32.0,32.0,-100.00,East,85,14.0,22.0,100,-99.99,,,-99.99,,2013-03-19 13:12:00,
2013-03-19 09:23:00,32.0,32.0,-100.00,East,80,13.0,22.0,100,-99.99,,,-99.99,,2013-03-19 13:23:00,
2013-03-19 09:33:00,32.0,32.0,-100.00,East,80,12.0,20.0,100,-99.99,,,-99.99,,2013-03-19 13:33:00,
2013-03-19 09:42:00,32.0,30.0,-100.00,East,90,14.0,24.0,93,-99.99,,,-99.99,,2013-03-19 13:42:00,
2013-03-19 09:52:00,32.0,32.0,-100.00,East,80,13.0,21.0,100,-99.99,,,-99.99,,2013-03-19 13:52:00,
2013-03-19 10:02:00,32.0,32.0,-100.00,ENE,70,13.0,24.0,100,-99.99,,,-99.99,,2013-03-19 14:02:00,
2013-03-19 19:13:00,32.0,31.0,-100.00,NE,40,15.0,30.0,93,-99.99,,,-99.99,,2013-03-19 23:13:00,
2013-03-19 19:22:00,32.0,31.0,-100.00,NE,40,17.0,28.0,93,-99.99,,,-99.99,,2013-03-19 23:22:00,
2013-03-19 19:33:00,33.0,31.0,-100.00,NE,45,15.0,35.0,93,-99.99,,,-99.99,,2013-03-19 23:33:00,
2013-03-19 19:43:00,32.0,31.0,-100.00,NE,45,17.0,30.0,93,-99.99,,,-99.99,,2013-03-19 23:43:00,
2013-03-19 19:52:00,32.0,31.0,-100.00,NE,45,16.0,25.0,93,-99.99,,,-99.99,,2013-03-19 23:52:00,
2013-03-19 20:03:00,32.0,31.0,-100.00,NNE,30,14.0,27.0,93,-99.99,,,-99.99,,2013-03-20 00:03:00,
2013-03-19 20:13:00,32.0,32.0,-100.00,NE,35,14.0,25.0,100,-99.99,,,-99.99,,2013-03-20 00:13:00,
2013-03-19 20:22:00,32.0,32.0,-100.00,NNE,25,14.0,30.0,100,-99.99,,,-99.99,,2013-03-20 00:22:00,
2013-03-19 20:42:00,32.0,32.0,-100.00,NE,45,14.0,29.0,100,-99.99,,,-99.99,,2013-03-20 00:42:00,
2013-03-19 20:52:00,32.0,32.0,-100.00,NE,45,16.0,28.0,100,-99.99,,,-99.99,,2013-03-20 00:52:00,
2013-03-19 21:03:00,32.0,32.0,-100.00,NE,40,14.0,29.0,100,-99.99,,,-99.99,,2013-03-20 01:03:00,
2013-03-19 21:12:00,32.0,32.0,-100.00,NNE,30,14.0,31.0,100,-99.99,,,-99.99,,2013-03-20 01:12:00,
2013-03-19 21:23:00,32.0,32.0,-100.00,NE,45,10.0,25.0,100,-99.99,,,-99.99,,2013-03-20 01:23:00,
2013-03-19 21:32:00,32.0,32.0,-100.00,NE,35,10.0,25.0,100,-99.99,,,-99.99,,2013-03-20 01:32:00,
2013-03-19 21:43:00,32.0,32.0,-100.00,NNE,30,17.0,28.0,100,-99.99,,,-99.99,,2013-03-20 01:43:00,
2013-03-19 21:52:00,32.0,32.0,-100.00,NNE,30,17.0,28.0,100,-99.99,,,-99.99,,2013-03-20 01:52:00,
2013-03-19 22:12:00,28.0,28.0,-100.00,North,350,8.0,21.0,100,-99.99,,,-99.99,,2013-03-20 02:12:00,
2013-03-19 22:23:00,28.0,28.0,-100.00,NNW,345,6.0,16.0,100,-99.99,,,-99.99,,2013-03-20 02:23:00,
2013-03-19 22:32:00,27.0,27.0,-100.00,WNW,300,7.0,15.0,100,-99.99,,,-99.99,,2013-03-20 02:32:00,
2013-03-19 22:43:00,27.0,27.0,-100.00,North,10,6.0,12.0,99,-99.99,,,-99.99,,2013-03-20 02:43:00,
2013-03-19 23:02:00,26.0,26.0,-100.00,North,0,3.0,20.0,99,-99.99,,,-99.99,,2013-03-20 03:02:00,
2013-03-19 23:10:00,25.0,25.0,-100.00,West,275,7.0,15.0,97,-99.99,,,-99.99,,2013-03-20 03:10:00,
2013-03-19 23:12:00,26.0,26.0,-100.00,West,280,7.0,23.0,98,-99.99,,,-99.99,,2013-03-20 03:12:00,
2013-03-19 23:34:00,26.0,25.0,-100.00,NW,305,9.0,20.0,97,-99.99,,,-99.99,,2013-03-20 03:34:00,
2013-03-19 23:43:00,26.0,25.0,-100.00,West,265,3.0,14.0,97,-99.99,,,-99.99,,2013-03-20 03:43:00,
2013-03-19 23:53:00,25.0,25.0,-100.00,West,275,7.0,15.0,97,-99.99,,,-99.99,,2013-03-20 03:53:00,